Flag for Canada Weather past 2 weeks in Eureka, Nunavut, Canada

Now
-11 °F

Sunny.


Feels Like: -11 °F
Forecast: -6 / 5 °F
Wind: 2 mph from Southwest

Location: Eureka

Current Time: Apr 26, 2015 at 5:08:54 AM

Latest Report: Apr 26, 2015 at 4:00 AM


Visibility: 15 mi

Pressure: 30.66 "Hg

Humidity: 70%

Dew point: -18 °F

Location of EurekaLocation

Historic Weather in Eureka — Graph

°F

Eureka temperature yesterday

Maximum temperature yesterday: 1 °F (at 5:00 PM)
Minimum temperature yesterday: -13 °F (at 5:00 AM)
Average temperature yesterday: -5 °F

Past Weeks' High & Low Weather Summary

 TemperatureHumidityPressure
High1 °F (Apr 18, 2:00 PM)78% (Apr 18, 1:00 PM)30.99 "Hg (Apr 18, 1:00 PM)
Low-40 °F (Apr 11, 4:00 AM)40% (Apr 16, 12:00 PM)29.16 "Hg (Apr 15, 6:00 PM)
Average-12 °F64%29.98 "Hg
* Reported Apr 11 4:00 AM — Apr 26 4:00 AM, Eureka, Weather by CustomWeather, © 2015

Note: Actual official high and low records may vary slightly from our data, if they occured in-between our weather recording intervals... More about our weather records

Advertising

Eureka weather history for previous 24 hours

 ConditionsComfort  
Time TempWeatherWind HumidityBarometerVisibility
4:00 AM
Sun, Apr 26
-11 °FSunny.2 mph70%30.66 "Hg15 mi
3:00 AM-9 °FSunny.No wind64%30.66 "Hg15 mi
2:00 AM-8 °FSunny.2 mph64%30.66 "Hg15 mi
1:00 AM-8 °FSunny.5 mph70%30.67 "Hg15 mi
10:00 PM
Sat, Apr 25
-4 °FPassing clouds.2 mph77%30.70 "Hg15 mi
9:00 PM-2 °FPassing clouds.No wind65%30.71 "Hg15 mi
8:00 PM0 °FPassing clouds.2 mph71%30.72 "Hg15 mi
7:00 PM0 °FPassing clouds.No wind71%30.72 "Hg15 mi
6:00 PM1 °FPassing clouds.No wind65%30.74 "Hg15 mi
5:00 PM1 °FScattered clouds.No wind65%30.75 "Hg15 mi
4:00 PM0 °FPartly sunny.2 mph71%30.76 "Hg15 mi
3:00 PM0 °FMostly cloudy.3 mph65%30.76 "Hg15 mi
2:00 PM-2 °FPartly sunny.No wind71%30.77 "Hg15 mi
1:00 PM-4 °FPartly sunny.No wind71%30.78 "Hg15 mi
12:00 PM-6 °FPartly sunny.No wind70%30.79 "Hg15 mi
11:00 AM-6 °FPartly sunny.No wind70%30.80 "Hg15 mi
10:00 AM-6 °FPassing clouds.2 mph70%30.82 "Hg15 mi
9:00 AM-9 °FPassing clouds.3 mph70%30.83 "Hg15 mi
8:00 AM-9 °FPassing clouds.No wind64%30.84 "Hg15 mi
7:00 AM-11 °FPassing clouds.No wind70%30.84 "Hg15 mi
6:00 AM-11 °FPassing clouds.No wind70%30.85 "Hg15 mi
5:00 AM-13 °FPassing clouds.No wind69%30.86 "Hg15 mi
Weather by CustomWeather, © 2015

See weather overviewHow to use our weather pages